H1 CPF 2 NER 2025 9 17 9 260 01 glonass146 H2 2216101 9146 54377 2025 9 17 0 0 0 2025 9 20 23 45 0 900 1 1 0 0 0 1 H9 10 0 60935 0.00000 0 -180042.733 11745148.788 -22625077.563 10 0 60935 900.00000 0 -2755484.840 10594580.972 -23025456.599 10 0 60935 1800.00000 0 -5428257.650 9628202.565 -22978018.238 10 0 60935 2700.00000 0 -8132112.848 8869178.824 -22483835.908 10 0 60935 3600.00000 0 -10798113.739 8328635.817 -21552669.011 10 0 60935 4500.00000 0 -13357285.704 8005315.501 -20202761.534 10 0 60935 5400.00000 0 -15743274.302 7885768.036 -18460476.593 10 0 60935 6300.00000 0 -17894901.093 7945071.489 -16359774.615 10 0 60935 7200.00000 0 -19758511.602 8148047.097 -13941545.835 10 0 60935 8100.00000 0 -21290018.801 8450917.469 -11252810.413 10 0 60935 9000.00000 0 -22456558.241 8803336.778 -8345801.910 10 0 60935 9900.00000 0 -23237687.182 9150706.544 -5276952.056 10 0 60935 10800.00000 0 -23626079.201 9436678.808 -2105796.552 10 0 60935 11700.00000 0 -23627686.676 9605740.884 1106176.980 10 0 60935 12600.00000 0 -23261365.731 9605772.577 4296716.605 10 0 60935 13500.00000 0 -22557980.517 9390468.143 7404006.516 10 0 60935 14400.00000 0 -21559025.213 8921520.979 10367857.403 10 0 60935 15300.00000 0 -20314822.054 8170479.118 13130864.133 10 0 60935 16200.00000 0 -18882371.088 7120193.304 15639508.984 10 0 60935 17100.00000 0 -17322941.512 5765796.468 17845189.822 10 0 60935 18000.00000 0 -15699505.002 4115172.743 19705154.077 10 0 60935 18900.00000 0 -14074117.659 2188895.335 21183321.317 10 0 60935 19800.00000 0 -12505359.175 19634.297 22250979.196 10 0 60935 20700.00000 0 -11045935.337 -2348942.819 22887339.903 10 0 60935 21600.00000 0 -9740543.186 -4863733.700 23079946.615 10 0 60935 22500.00000 0 -8624087.316 -7464164.548 22824922.119 10 0 60935 23400.00000 0 -7720321.455 -10084474.354 22127054.344 10 0 60935 24300.00000 0 -7040971.932 -12656227.205 20999716.457 10 0 60935 25200.00000 0 -6585379.871 -15110949.859 19464621.979 10 0 60935 26100.00000 0 -6340677.464 -17382786.088 17551418.386 10 0 60935 27000.00000 0 -6282491.444 -19411058.068 15297125.698 10 0 60935 27900.00000 0 -6376144.737 -21142628.297 12745429.555 10 0 60935 28800.00000 0 -6578306.167 -22533963.219 9945841.380 10 0 60935 29700.00000 0 -6839018.846 -23552811.709 6952741.031 10 0 60935 30600.00000 0 -7104021.511 -24179427.314 3824320.110 10 0 60935 31500.00000 0 -7317264.073 -24407282.081 621446.497 10 0 60935 32400.00000 0 -7423510.014 -24243241.237 -2593527.325 10 0 60935 33300.00000 0 -7370914.034 -23707190.822 -5757988.110 10 0 60935 34200.00000 0 -7113464.160 -22831133.773 -8810292.793 10 0 60935 35100.00000 0 -6613183.042 -21657792.743 -11690981.236 10 0 60935 36000.00000 0 -5841993.423 -20238779.103 -14343945.798 10 0 60935 36900.00000 0 -4783167.146 -18632406.168 -16717533.688 10 0 60935 37800.00000 0 -3432294.948 -16901239.775 -18765559.676 10 0 60935 38700.00000 0 -1797734.916 -15109490.388 -20448208.821 10 0 60935 39600.00000 0 99480.247 -13320357.322 -21732811.381 10 0 60935 40500.00000 0 2226273.802 -11593437.314 -22594474.984 10 0 60935 41400.00000 0 4538667.390 -9982306.436 -23016562.224 10 0 60935 42300.00000 0 6983387.570 -8532376.554 -22991005.105 10 0 60935 43200.00000 0 9499869.398 -7279115.425 -22518451.109 10 0 60935 44100.00000 0 12022573.472 -6246703.844 -21608238.953 10 0 60935 45000.00000 0 14483519.909 -5447184.519 -20278205.423 10 0 60935 45900.00000 0 16814933.872 -4880136.518 -18554327.806 10 0 60935 46800.00000 0 18951892.866 -4532886.939 -16470209.547 10 0 60935 47700.00000 0 20834866.076 -4381248.977 -14066419.623 10 0 60935 48600.00000 0 22412040.730 -4390753.487 -11389698.819 10 0 60935 49500.00000 0 23641339.466 -4518320.685 -8492048.561 10 0 60935 50400.00000 0 24492045.629 -4714300.267 -5429720.099 10 0 60935 51300.00000 0 24945969.838 -4924793.043 -2262123.732 10 0 60935 52200.00000 0 24998110.301 -5094155.581 949320.873 10 0 60935 53100.00000 0 24656780.417 -5167581.877 4142371.059 10 0 60935 54000.00000 0 23943199.345 -5093653.064 7255161.505 10 0 60935 54900.00000 0 22890563.490 -4826747.677 10227395.630 10 0 60935 55800.00000 0 21542638.259 -4329210.955 13001505.413 10 0 60935 56700.00000 0 19951929.229 -3573191.822 15523757.842 10 0 60935 57600.00000 0 18177509.054 -2542070.055 17745287.281 10 0 60935 58500.00000 0 16282590.503 -1231413.205 19623034.555 10 0 60935 59400.00000 0 14331946.249 350577.727 21120575.412 10 0 60935 60300.00000 0 12389282.197 2183153.782 22208823.049 10 0 60935 61200.00000 0 10514672.890 4233632.763 22866591.684 10 0 60935 62100.00000 0 8762164.934 6458519.420 23081010.578 10 0 60935 63000.00000 0 7177647.417 8805086.607 22847780.507 10 0 60935 63900.00000 0 5797077.438 11213353.672 22171267.342 10 0 60935 64800.00000 0 4645134.298 13618381.869 21064430.202 10 0 60935 65700.00000 0 3734358.348 15952793.063 19548584.541 10 0 60935 66600.00000 0 3064810.550 18149408.307 17653003.458 10 0 60935 67500.00000 0 2624267.247 20143897.275 15414363.611 10 0 60935 68400.00000 0 2388942.244 21877328.489 12876045.054 10 0 60935 69300.00000 0 2324706.181 23298513.663 10087297.477 10 0 60935 70200.00000 0 2388751.933 24366047.552 7102288.115 10 0 60935 71100.00000 0 2531635.666 25049956.950 3979049.364 10 0 60935 72000.00000 0 2699606.844 25332888.542 778346.588 10 0 60935 72900.00000 0 2837127.724 25210784.664 -2437511.410 10 0 60935 73800.00000 0 2889474.453 24693017.625 -5605895.253 10 0 60935 74700.00000 0 2805308.044 23801976.304 -8665086.169 10 0 60935 75600.00000 0 2539104.542 22572122.241 -11555490.181 10 0 60935 76500.00000 0 2053339.671 21048555.074 -14220810.308 10 0 60935 77400.00000 0 1320333.721 19285148.289 -16609152.676 10 0 60935 78300.00000 0 323677.091 17342334.496 -18674044.035 10 0 60935 79200.00000 0 -940825.031 15284634.221 -20375340.230 10 0 60935 80100.00000 0 -2464729.697 13178032.931 -21680007.653 10 0 60935 81000.00000 0 -4227073.452 11087316.992 -22562762.620 10 0 60935 81900.00000 0 -6195025.321 9073480.570 -23006556.674 10 0 60935 82800.00000 0 -8325048.345 7191311.992 -23002899.094 10 0 60935 83700.00000 0 -10564521.083 5487259.988 -22552011.217 10 0 60935 84600.00000 0 -12853751.288 3997667.993 -21662810.485 10 0 60935 85500.00000 0 -15128297.622 2747448.870 -20352725.460 10 0 60936 0.00000 0 -17321502.402 1749253.719 -18647346.348 10 0 60936 900.00000 0 -19367131.085 1003166.971 -16579917.513 10 0 60936 1800.00000 0 -21202005.794 496939.650 -14190684.718 10 0 60936 2700.00000 0 -22768527.470 206747.112 -11526107.088 10 0 60936 3600.00000 0 -24016979.111 98438.847 -8637951.481 10 0 60936 4500.00000 0 -24907515.883 129225.528 -5582286.195 10 0 60936 5400.00000 0 -25411759.701 249731.052 -2418393.639 10 0 60936 6300.00000 0 -25513932.537 406322.094 792376.959 10 0 60936 7200.00000 0 -25211481.973 543616.362 3987794.683 10 0 60936 8100.00000 0 -24515173.652 607063.421 7105947.145 10 0 60936 9000.00000 0 -23448647.405 545489.176 10086432.901 10 0 60936 9900.00000 0 -22047456.046 313496.757 12871523.403 10 0 60936 10800.00000 0 -20357627.121 -126377.246 15407272.596 10 0 60936 11700.00000 0 -18433807.572 -801842.039 17644553.426 10 0 60936 12600.00000 0 -16337068.248 -1729444.120 19540001.958 10 0 60936 13500.00000 0 -14132459.109 -2913630.766 21056851.659 10 0 60936 14400.00000 0 -11886416.010 -4346325.676 22165642.456 10 0 60936 15300.00000 0 -9664125.951 -6007035.881 22844791.394 10 0 60936 16200.00000 0 -7526959.340 -7863487.146 23081014.223 10 0 60936 17100.00000 0 -5530074.964 -9872763.294 22869589.737 10 0 60936 18000.00000 0 -3720296.478 -11982904.044 22214461.411 10 0 60936 18900.00000 0 -2134348.069 -14134896.849 21128173.656 10 0 60936 19800.00000 0 -797522.387 -16264981.652 19631642.892 10 0 60936 20700.00000 0 277163.886 -18307174.053 17753766.596 10 0 60936 21600.00000 0 1089291.515 -20195902.761 15530876.537 10 0 60936 22500.00000 0 1650823.667 -21868651.822 13006045.408 10 0 60936 23400.00000 0 1985363.191 -23268497.155 10228259.157 10 0 60936 24300.00000 0 2126913.382 -24346430.751 7251470.191 10 0 60936 25200.00000 0 2118194.598 -25063374.170 4133549.328 10 0 60936 26100.00000 0 2008588.163 -25391795.612 935156.924 10 0 60936 27000.00000 0 1851795.260 -25316861.296 -2281444.486 10 0 60936 27900.00000 0 1703311.001 -24837071.452 -5453612.046 10 0 60936 28800.00000 0 1617822.055 -23964353.126 -8519553.975 10 0 60936 29700.00000 0 1646639.743 -22723605.227 -11419545.177 10 0 60936 30600.00000 0 1835279.090 -21151714.636 -14097102.020 10 0 60936 31500.00000 0 2221288.059 -19296084.948 -16500092.152 10 0 60936 32400.00000 0 2832420.400 -17212740.120 -18581756.733 10 0 60936 33300.00000 0 3685230.661 -14964083.382 -20301624.558 10 0 60936 34200.00000 0 4784151.723 -12616406.174 -21626299.960 10 0 60936 35100.00000 0 6121094.418 -10237252.200 -22530109.312 10 0 60936 36000.00000 0 7675586.536 -7892747.302 -22995594.013 10 0 60936 36900.00000 0 9415445.547 -5645006.932 -23013841.027 10 0 60936 37800.00000 0 11297956.800 -3549729.101 -22584645.473 10 0 60936 38700.00000 0 13271507.791 -1654072.488 -21716503.010 10 0 60936 39600.00000 0 15277609.923 5093.036 -20426433.047 10 0 60936 40500.00000 0 17253223.172 1402492.144 -18739637.057 10 0 60936 41400.00000 0 19133286.496 2525253.547 -16688999.254 10 0 60936 42300.00000 0 20853348.381 3373191.603 -14314439.865 10 0 60936 43200.00000 0 22352187.870 3958550.533 -11662133.935 10 0 60936 44100.00000 0 23574316.977 4305224.197 -8783611.019 10 0 60936 45000.00000 0 24472260.371 4447486.136 -5734753.406 10 0 60936 45900.00000 0 25008517.652 4428285.001 -2574712.356 10 0 60936 46800.00000 0 25157126.800 4297178.402 635236.729 10 0 60936 47700.00000 0 24904764.043 4107993.205 3832878.063 10 0 60936 48600.00000 0 24251334.739 3916311.416 6956255.466 10 0 60936 49500.00000 0 23210031.003 3776887.954 9944865.696 10 0 60936 50400.00000 0 21806853.924 3741109.148 12740822.430 10 0 60936 51300.00000 0 20079620.390 3854598.993 15289968.971 10 0 60936 52200.00000 0 18076495.656 4155073.798 17542918.862 10 0 60936 53100.00000 0 15854112.386 4670535.527 19456005.027 10 0 60936 54000.00000 0 13475353.671 5417879.956 20992119.880 10 0 60936 54900.00000 0 11006891.260 6401978.646 22121430.908 10 0 60936 55800.00000 0 8516580.211 7615274.127 22821958.433 10 0 60936 56700.00000 0 6070816.960 9037906.587 23080004.731 10 0 60936 57600.00000 0 3731969.317 10638368.420 22890426.240 10 0 60936 58500.00000 0 1555984.090 12374661.184 22256743.243 10 0 60936 59400.00000 0 -409729.166 14195908.658 21191084.223 10 0 60936 60300.00000 0 -2128050.890 16044360.580 19713964.943 10 0 60936 61200.00000 0 -3573468.125 17857705.076 17853905.264 10 0 60936 62100.00000 0 -4732900.242 19571594.473 15646889.778 10 0 60936 63000.00000 0 -5605999.240 21122279.688 13135681.284 10 0 60936 63900.00000 0 -6204911.954 22449243.110 10368999.293 10 0 60936 64800.00000 0 -6553514.089 23497719.318 7400578.578 10 0 60936 65700.00000 0 -6686148.400 24220996.992 4288125.531 10 0 60936 66600.00000 0 -6645920.531 24582404.082 1092192.632 10 0 60936 67500.00000 0 -6482625.132 24556891.268 -2125006.669 10 0 60936 68400.00000 0 -6250390.901 24132145.590 -5300818.767 10 0 60936 69300.00000 0 -6005145.539 23309185.943 -8373381.460 10 0 60936 70200.00000 0 -5802009.490 22102414.289 -11282840.900 10 0 60936 71100.00000 0 -5692730.520 20539119.670 -13972528.935 10 0 60936 72000.00000 0 -5723269.436 18658455.566 -16390076.570 10 0 60936 72900.00000 0 -5931640.662 16509933.653 -18488440.917 10 0 60936 73800.00000 0 -6346100.292 14151497.533 -20226824.958 10 0 60936 74700.00000 0 -6983759.183 11647257.764 -21571471.919 10 0 60936 75600.00000 0 -7849680.247 9064983.580 -22496318.905 10 0 60936 76500.00000 0 -8936498.351 6473456.636 -22983497.537 10 0 60936 77400.00000 0 -10224578.885 3939797.474 -23023672.523 10 0 60936 78300.00000 0 -11682708.191 1526876.114 -22616212.486 10 0 60936 79200.00000 0 -13269286.632 -709085.955 -21769190.625 10 0 60936 80100.00000 0 -14933973.975 -2720623.434 -20499216.143 10 0 60936 81000.00000 0 -16619717.827 -4470758.192 -18831100.492 10 0 60936 81900.00000 0 -18265080.040 -5934283.265 -16797365.610 10 0 60936 82800.00000 0 -19806763.552 -7098548.368 -14437604.206 10 0 60936 83700.00000 0 -21182233.949 -7963716.377 -11797704.892 10 0 60936 84600.00000 0 -22332326.218 -8542482.356 -8928957.399 10 0 60936 85500.00000 0 -23203727.780 -8859269.027 -5887055.413 10 0 60937 0.00000 0 -23751234.246 -8948934.411 -2731016.668 10 0 60937 900.00000 0 -23939684.060 -8855047.557 477960.502 10 0 60937 1800.00000 0 -23745490.807 -8627806.080 3677677.836 10 0 60937 2700.00000 0 -23157710.396 -8321684.175 6806138.024 10 0 60937 3600.00000 0 -22178597.924 -7992910.501 9802738.645 10 0 60937 4500.00000 0 -20823631.370 -7696882.429 12609438.146 10 0 60937 5400.00000 0 -19121000.992 -7485625.481 15171871.580 10 0 60937 6300.00000 0 -17110585.305 -7405404.712 17440395.272 10 0 60937 7200.00000 0 -14842455.736 -7494588.346 19371040.887 10 0 60937 8100.00000 0 -12374971.285 -7781853.376 20926361.315 10 0 60937 9000.00000 0 -9772541.295 -8284808.666 22076152.712 10 0 60937 9900.00000 0 -7103147.979 -9009093.796 22798039.343 10 0 60937 10800.00000 0 -4435730.158 -9947992.300 23077910.234 10 0 60937 11700.00000 0 -1837535.392 -11082576.742 22910199.277 10 0 60937 12600.00000 0 628450.923 -12382381.090 22298002.983 10 0 60937 13500.00000 0 2905893.825 -13806574.045 21253032.987 10 0 60937 14400.00000 0 4947216.105 -15305586.047 19795403.171 10 0 60937 15300.00000 0 6715337.516 -16823123.587 17953254.282 10 0 60937 16200.00000 0 8184973.728 -18298487.900 15762221.965 10 0 60937 17100.00000 0 9343440.861 -19669101.936 13264757.105 10 0 60937 18000.00000 0 10190931.851 -20873140.028 10509310.513 10 0 60937 18900.00000 0 10740252.983 -21852149.797 7549396.836 10 0 60937 19800.00000 0 11016031.641 -22553555.419 4442555.372 10 0 60937 20700.00000 0 11053428.823 -22932935.781 1249227.936 10 0 60937 21600.00000 0 10896411.194 -22955980.149 -1968423.956 10 0 60937 22500.00000 0 10595656.485 -22600037.304 -5147738.800 10 0 60937 23400.00000 0 10206181.926 -21855191.205 -8226786.749 10 0 60937 24300.00000 0 9784797.455 -20724816.414 -11145587.897 10 0 60937 25200.00000 0 9387493.095 -19225588.730 -13847292.095 10 0 60937 26100.00000 0 9066872.665 -17386949.792 -16279296.054 10 0 60937 27000.00000 0 8869743.922 -15250047.828 -18394274.935 10 0 60937 27900.00000 0 8834968.339 -12866198.966 -20151107.709 10 0 60937 28800.00000 0 8991662.314 -10294933.911 -21515677.924 10 0 60937 29700.00000 0 9357826.376 -7601712.106 -22461534.441 10 0 60937 30600.00000 0 9939460.407 -4855399.281 -22970399.682 10 0 60937 31500.00000 0 10730202.113 -2125613.935 -23032516.230 10 0 60937 32400.00000 0 11711503.589 519946.704 -22646825.899 10 0 60937 33300.00000 0 12853338.121 3018090.270 -21820978.725 10 0 60937 34200.00000 0 14115406.949 5312515.598 -20571172.618 10 0 60937 35100.00000 0 15448794.816 7355903.726 -18921827.591 10 0 60937 36000.00000 0 16798004.380 9111628.065 -16905101.568 10 0 60937 36900.00000 0 18103283.789 10555014.345 -14560257.688 10 0 60937 37800.00000 0 19303149.626 11674099.908 -11932895.782 10 0 60937 38700.00000 0 20336999.344 12469862.844 -9074063.125 10 0 60937 39600.00000 0 21147703.714 12955913.546 -6039261.902 10 0 60937 40500.00000 0 21684070.719 13157663.679 -2887372.673 10 0 60937 41400.00000 0 21903077.835 13111009.208 320485.356 10 0 60937 42300.00000 0 21771779.350 12860584.270 3522135.223 10 0 60937 43200.00000 0 21268809.005 12457660.403 6655541.616 10 0 60937 44100.00000 0 20385415.123 11957780.191 9660005.885 10 0 60937 45000.00000 0 19125984.895 11418225.255 12477333.933 10 0 60937 45900.00000 0 17508035.626 10895425.134 15052954.956 10 0 60937 46800.00000 0 15561672.825 10442415.887 17336970.102 10 0 60937 47700.00000 0 13328536.976 10106454.932 19285111.476 10 0 60937 48600.00000 0 10860281.821 9926892.057 20859593.773 10 0 60937 49500.00000 0 8216646.153 9933385.811 22029842.782 10 0 60937 50400.00000 0 5463197.795 10144540.173 22773087.277 10 0 60937 51300.00000 0 2668841.821 10567019.045 23074803.203 10 0 60937 52200.00000 0 -96805.211 11195176.432 22929001.621 10 0 60937 53100.00000 0 -2766067.557 12011218.872 22338354.533 10 0 60937 54000.00000 0 -5275780.428 12985894.704 21314155.512 10 0 60937 54900.00000 0 -7569672.301 14079682.845 19876114.877 10 0 60937 55800.00000 0 -9600461.104 15244432.800 18051992.155 10 0 60937 56700.00000 0 -11331577.428 16425388.566 15877071.575 10 0 60937 57600.00000 0 -12738443.067 17563512.570 13393489.369 10 0 60937 58500.00000 0 -13809251.314 18598012.679 10649424.730 10 0 60937 59400.00000 0 -14545216.208 19468966.104 7698169.190 10 0 60937 60300.00000 0 -14960280.092 20119929.318 4597091.956 10 0 60937 61200.00000 0 -15080291.787 20500423.020 1406521.252 10 0 60937 62100.00000 0 -14941690.230 20568185.989 -1811436.171 10 0 60937 63000.00000 0 -14589749.729 20291101.054 -4994113.603 10 0 60937 63900.00000 0 -14076461.847 19648710.159 -8079516.080 10 0 60937 64800.00000 0 -13458144.684 18633252.906 -11007539.946 10 0 60937 65700.00000 0 -12792882.105 17250183.287 -13721155.143 10 0 60937 66600.00000 0 -12137902.740 15518141.701 -16167525.871 10 0 60937 67500.00000 0 -11547011.061 13468382.656 -18299046.831 10 0 60937 68400.00000 0 -11068180.366 11143681.768 -20074274.150 10 0 60937 69300.00000 0 -10741410.306 8596767.843 -21458732.563 10 0 60937 70200.00000 0 -10596939.938 5888345.809 -22425583.232 10 0 60937 71100.00000 0 -10653891.835 3084793.344 -22956139.628 10 0 60937 72000.00000 0 -10919404.167 255627.557 -23040222.149 10 0 60937 72900.00000 0 -11388286.756 -2529152.692 -22676345.424 10 0 60937 73800.00000 0 -12043214.857 -5201738.413 -21871735.618 10 0 60937 74700.00000 0 -12855451.643 -7699085.425 -20642178.294 10 0 60937 75600.00000 0 -13786068.169 -9965286.440 -19011700.634 10 0 60937 76500.00000 0 -14787608.770 -11953642.916 -17012094.838 10 0 60937 77400.00000 0 -15806131.244 -13628351.974 -14682292.495 10 0 60937 78300.00000 0 -16783535.633 -14965740.004 -12067602.452 10 0 60937 79200.00000 0 -17660083.466 -15954993.484 -9218827.168 10 0 60937 80100.00000 0 -18377001.429 -16598358.557 -6191274.871 10 0 60937 81000.00000 0 -18879060.122 -16910803.023 -3043686.702 10 0 60937 81900.00000 0 -19117019.604 -16919156.760 162900.393 10 0 60937 82800.00000 0 -19049839.195 -16660768.183 3366333.070 10 0 60937 83700.00000 0 -18646558.852 -16181734.427 6504540.626 10 0 60937 84600.00000 0 -17887773.247 -15534780.452 9516730.791 10 0 60937 85500.00000 0 -16766636.665 -14776876.728 12344559.497 10 0 60938 0.00000 0 -15289356.475 -13966695.832 14933252.329 10 0 60938 900.00000 0 -13475153.151 -13162014.240 17232658.025 10 0 60938 1800.00000 0 -11355689.692 -12417169.186 19198210.926 10 0 60938 2700.00000 0 -8973990.514 -11780675.438 20791789.239 10 0 60938 3600.00000 0 -6382895.248 -11293102.618 21982449.710 10 0 60938 4500.00000 0 -3643109.436 -10985301.335 22747026.525 10 0 60938 5400.00000 0 -820931.403 -10877052.498 23070583.003 10 0 60938 6300.00000 0 2014252.158 -10976196.611 22946707.410 10 0 60938 7200.00000 0 4792599.709 -11278280.158 22377646.870 10 0 60938 8100.00000 0 7446469.770 -11766734.750 21374276.157 10 0 60938 9000.00000 0 9912988.308 -12413582.702 19955900.954 10 0 60938 9900.00000 0 12136422.783 -13180640.722 18149898.172 10 0 60938 10800.00000 0 14070264.653 -14021172.413 15991198.928 10 0 60938 11700.00000 0 15678933.752 -14881921.258 13521622.787 10 0 60938 12600.00000 0 16939033.228 -15705439.266 10789075.005 10 0 60938 13500.00000 0 17840102.297 -16432613.523 7846621.386 10 0 60938 14400.00000 0 18384834.906 -17005283.876 4751458.166 10 0 60938 15300.00000 0 18588754.902 -17368840.549 1563796.898 10 0 60938 16200.00000 0 18479361.343 -17474690.739 -1654313.624 10 0 60938 17100.00000 0 18094780.279 -17282488.443 -4840204.675 10 0 60938 18000.00000 0 17481980.508 -16762031.471 -7931819.287 10 0 60938 18900.00000 0 16694629.667 -15894743.711 -10868932.996 10 0 60938 19800.00000 0 15790682.442 -14674678.342 -13594338.520 10 0 60938 20700.00000 0 14829804.225 -13108998.223 -16054969.971 10 0 60938 21600.00000 0 13870740.455 -11217912.119 -18202943.678 10 0 60938 22500.00000 0 12968743.993 -9034068.628 -19996494.672 10 0 60938 23400.00000 0 12173170.062 -6601432.877 -21400790.237 10 0 60938 24300.00000 0 11525340.794 -3973692.890 -22388604.792 10 0 60938 25200.00000 0 11056769.491 -1212262.298 -22940843.396 10 0 60938 26100.00000 0 10787819.128 1616037.096 -23046904.363 10 0 60938 27000.00000 0 10726850.856 4441516.259 -22704874.818 10 0 60938 27900.00000 0 10869897.361 7194277.711 -21921556.332 10 0 60938 28800.00000 0 11200873.672 9806881.856 -20712321.034 10 0 60938 29700.00000 0 11692315.307 12216910.662 -19100801.838 10 0 60938 30600.00000 0 12306611.573 14369323.040 -17118423.457 10 0 60938 31500.00000 0 12997681.088 16218505.177 -14803783.855 10 0 60938 32400.00000 0 13713018.211 17729932.011 -12201898.520 10 0 60938 33300.00000 0 14396023.657 18881372.321 -9363322.433 10 0 60938 34200.00000 0 14988520.796 19663588.978 -6343166.944 10 0 60938 35100.00000 0 15433351.556 20080506.957 -3200030.657 10 0 60938 36000.00000 0 15676942.603 20148843.871 5134.999 10 0 60938 36900.00000 0 15671733.891 19897220.043 3210203.582 10 0 60938 37800.00000 0 15378367.495 19364786.792 6353072.222 10 0 60938 38700.00000 0 14767544.783 18599431.425 9372858.094 10 0 60938 39600.00000 0 13821473.832 17655634.916 12211069.972 10 0 60938 40500.00000 0 12534846.107 16592072.431 14812732.792 10 0 60938 41400.00000 0 10915300.933 15469057.294 17127444.127 10 0 60938 42300.00000 0 8983357.522 14345935.286 19110342.863 10 0 60938 43200.00000 0 6771816.206 13278537.961 20722972.171 10 0 60938 44100.00000 0 4324652.384 12316801.090 21934020.807 10 0 60938 45000.00000 0 1695447.516 11502647.392 22719929.015 10 0 60938 45900.00000 0 -1054579.522 10868221.756 23065347.696 10 0 60938 46800.00000 0 -3858860.947 10434552.629 22963442.059 10 0 60938 47700.00000 0 -6647995.321 10210695.713 22416033.596 10 0 60938 48600.00000 0 -9352386.973 10193396.220 21433577.015 10 0 60938 49500.00000 0 -11904901.453 10367284.548 20034971.586 10 0 60938 50400.00000 0 -14243427.790 10705598.050 18247209.361 10 0 60938 51300.00000 0 -16313241.657 11171399.577 16104865.682 10 0 60938 52200.00000 0 -18069071.282 11719242.502 13649440.474 10 0 60938 53100.00000 0 -19476779.754 12297212.820 10928561.870 10 0 60938 54000.00000 0 -20514593.041 12849262.640 7995066.673 10 0 60938 54900.00000 0 -21173821.754 13317736.511 4905974.902 10 0 60938 55800.00000 0 -21459045.879 13645983.274 1721378.286 10 0 60938 56700.00000 0 -21387754.369 13780941.984 -1496735.315 10 0 60938 57600.00000 0 -20989454.714 13675591.081 -4685697.954 10 0 60938 58500.00000 0 -20304290.329 13291155.433 -7783393.228 10 0 60938 59400.00000 0 -19381224.749 12598976.077 -10729478.196 10 0 60938 60300.00000 0 -18275870.251 11581961.785 -13466570.428 10 0 60938 61200.00000 0 -17048053.802 10235559.488 -15941375.717 10 0 60938 62100.00000 0 -15759224.330 8568201.255 -18105733.468 10 0 60938 63000.00000 0 -14469811.917 6601207.943 -19917558.700 10 0 60938 63900.00000 0 -13236651.235 4368152.845 -21341661.958 10 0 60938 64800.00000 0 -12110578.416 1913711.655 -22350431.257 10 0 60938 65700.00000 0 -11134302.658 -707953.334 -22924363.216 10 0 60938 66600.00000 0 -10340641.881 -3435207.258 -23052433.694 10 0 60938 67500.00000 0 -9751195.831 -6201270.927 -22732301.617 10 0 60938 68400.00000 0 -9375511.304 -8936766.337 -21970342.949 10 0 60938 69300.00000 0 -9210773.179 -11572373.705 -20781515.081 10 0 60938 70200.00000 0 -9242032.717 -14041489.910 -19189055.080 10 0 60938 71100.00000 0 -9442961.947 -16282778.488 -17224018.360 10 0 60938 72000.00000 0 -9777100.997 -18242505.983 -14924667.257 10 0 60938 72900.00000 0 -10199544.588 -19876568.643 -12335721.752 10 0 60938 73800.00000 0 -10658995.693 -21152126.403 -9507487.116 10 0 60938 74700.00000 0 -11100099.115 -22048777.547 -6494875.544 10 0 60938 75600.00000 0 -11465956.177 -22559226.618 -3356340.814 10 0 60938 76500.00000 0 -11700714.311 -22689419.242 -152746.552 10 0 60938 77400.00000 0 -11752122.328 -22458139.687 3053809.990 10 0 60938 78300.00000 0 -11573943.755 -21896089.302 6201196.075 10 0 60938 79200.00000 0 -11128126.672 -21044485.435 9228440.626 10 0 60938 80100.00000 0 -10386638.709 -19953240.258 12076907.564 10 0 60938 81000.00000 0 -9332889.953 -18678796.148 14691423.211 10 0 60938 81900.00000 0 -7962683.576 -17281708.319 17021336.591 10 0 60938 82800.00000 0 -6284653.638 -15824075.636 19021492.877 10 0 60938 83700.00000 0 -4320170.696 -14366926.615 20653101.942 10 0 60938 84600.00000 0 -2102717.710 -12967669.199 21884485.993 10 0 60938 85500.00000 0 323239.448 -11677710.247 22691692.414 99